Weather Roundup
Issued by NWS Chicago, IL

Home | Current Version | Previous Version | Graphics & Text | Print | Product List | Glossary On
Versions: 1 2 3 4 5 6 7 8 9 10 11 12 13 14 15 16 17 18 19 20 21 22 23 24 25 26 27 28 29 30 31 32 33 34 35 36 37 38 39 40 41 42 43 44 45 46 47 48 49 50
000
NZUS59 KLOT 290812
HRRLOT

CHICAGO AREA WEATHER ROUNDUP
NATIONAL WEATHER SERVICE CHICAGO/ROMEOVILLE IL
300 AM CDT SUN MAR 29 2015

NOTE: "FAIR" INDICATES FEW OR NO CLOUDS BELOW 12,000 FEET WITH NO
SIGNIFICANT WEATHER AND/OR OBSTRUCTIONS TO VISIBILITY.

* THESE STATIONS ARE NOT UNDER NWS QUALITY CONTROL. THEY ALSO MAY NOT
  REPORT WEATHER SUCH AS PRECIPITATION OR FOG.

ILZ005-006-012>014-019>023-290900-
NORTHEAST ILLINOIS

CITY           SKY/WX    TMP DP  RH WIND       PRES   REMARKS
OHARE          MOCLDY    25  15  66 S8        30.20F WCI  16
MIDWAY         PTCLDY    28  14  55 S8        30.22F WCI  20
AURORA         CLEAR     27  16  63 S9        30.20F WCI  18
LANSING*       CLEAR     24  15  68 S8        30.25F WCI  15
JOLIET*        CLEAR     28  17  61 S6        30.22F WCI  22
WAUKEGAN       PTCLDY    27  14  58 S12       30.18F WCI  17
DUPAGE AIRPORT CLEAR     25  15  66 S10       30.19F WCI  15
WHEELING       PTCLDY    26  13  57 S9        30.22F WCI  17
KANKAKEE*      CLEAR     29  16  59 S10G16    30.25F WCI  20
MORRIS*        CLEAR     26  15  64 S7        30.21F WCI  18
LEWIS AIRPORT* CLEAR     25  16  68 S9        30.22F WCI  15
NORTHERLY IS     N/A     29  13  51 S9          N/A  WCI  21
$$

WIZ051-052-058>065-066-070>072-290900-
SOUTHEAST WISCONSIN

CITY           SKY/WX    TMP DP  RH WIND       PRES   REMARKS
MILWAUKEE      PTCLDY    28  11  48 S9        30.16F WCI  19
KENOSHA*       PTCLDY    27  14  58 S9        30.17F WCI  18
RACINE*        PTCLDY    30  12  47 S10       30.18F WCI  21
BURLINGTON     PTCLDY    26  13  59 S6        30.14F WCI  19
WAUKESHA       PTCLDY    27  12  54 S9        30.14F WCI  17
WEST BEND      PTCLDY    28  12  50 S9        30.11F WCI  20
$$

INZ001>003-010>013-019-020-290900-
NORTHWEST INDIANA

CITY           SKY/WX    TMP DP  RH WIND       PRES   REMARKS
GARY*          CLEAR     28  13  53 S7        30.25F WCI  20
MICHIGAN CITY* NOT AVBL
RENSSELAER*    NOT AVBL
VALPARAISO     CLEAR     22  14  71 S6        30.26F WCI  14
$$

LMZ740>746-290900-
SOUTHERN LAKE MICHIGAN

STATION/POSITION TIME  SKY/WX   TEMP WIND        PRES    VSBY
                                AIR  DIR/SP/G
                 (UTC)          (F)  (DEG/KT/KT) (MB)    (MI)
HARRISON CRIB    0700            31  180/ 19/ 22   N/A
BURNHAM HARBOR   0800            29  160/  8/ 11   N/A
CALUMET HARBOR   NOT AVBL
BURNS HARBOR     0700            27  170/  9/ 15 1025.4F
MICHIGAN CITY    0700            26  140/ 11/ 14   N/A
$$

ABBREVIATIONS USED IN REMARKS
   TC - TEMPERATURE IN CELSIUS
  WCI - WIND CHILL INDEX
   HX - HEAT INDEX
  VSB - VISIBILITY
$$


USA.gov is the U.S. government's official web portal to all federal, state and local government web resources and services.